# Land Stadt Wetter Temperatur Luftdruck Luftfeuchtigkeit Sichtweite Windgeschwindigkeit Windrichtung Ortszeit
1 et Addis Abeba Clouds 12 1018 51 10000 2 99 02.08.2018 14:23
2 tr Alanya Clear 10 1020 69 10000 12 340 02.08.2018 14:22
3 au Alice Springs Clear 24 1016 46 10000 0 0 02.08.2018 14:21
4 ru Amderma Clouds -13 998 88 10000 34 59 02.08.2018 14:23
5 ru Anadyr Clouds -2 998 92 100 68 130 02.08.2018 14:23
6 ch Andermatt Clouds -6 1013 94 8036 13 334 02.08.2018 14:23
7 ad Andorra la Vella Snow -2 1016 87 1724 13 344 02.08.2018 14:22
8 tr Ankara Clear 0 1019 86 10000 0 0 02.08.2018 14:23
9 mg Antananarivo Clouds 14 1023 88 10000 9 140 02.08.2018 14:21
10 gr Athen Clear 14 1013 71 10000 6 167 02.08.2018 14:22
11 ck Avarua Rain 25 1012 94 10000 13 10 02.08.2018 14:22
12 iq Bagdad Clear 8 1020 53 10000 11 290 02.08.2018 14:22
13 th Bangkok Clouds 23 1014 64 10000 8 359 02.08.2018 14:21
14 es Barcelona Clouds 9 1011 37 10000 6 328 02.08.2018 14:22
15 de Berlin Clouds -1 994 82 10000 11 267 02.08.2018 14:21
16 ch Bern Clouds 0 1011 85 10000 4 0 02.08.2018 14:23
17 fr Bordeaux Clear 5 1018 94 10000 11 340 02.08.2018 14:21
18 de Braunschweig Clouds -2 1017 81 10000 5 0 02.08.2018 14:21
19 de Bremen Clouds -1 1006 98 7000 13 240 02.08.2018 14:22
20 ar Buenos Aires Clear 24 1015 59 10000 26 100 02.08.2018 14:22
21 ma Casablanca Clouds 13 1023 72 10000 14 340 02.08.2018 14:23
22 us Chicago Clouds 13 1014 32 10000 10 336 02.08.2018 14:23
23 pe Cusco Clouds 14 1025 58 10000 19 60 02.08.2018 14:23
24 au Darwin Clouds 27 1007 95 10000 0 0 02.08.2018 14:22
25 us Death Valley Clouds 27 1017 13 10000 2 46 02.08.2018 14:22
26 us Denver Clear 21 1013 17 10000 8 322 02.08.2018 14:21
27 qa Doha Clear 23 1016 79 10000 9 150 02.08.2018 14:23
28 de Dresden Clouds 0 993 81 10000 5 235 02.08.2018 14:22
29 ae Dubai Clear 23 1015 60 10000 9 140 02.08.2018 14:21
30 ie Dublin Rain 6 1009 91 10000 3 43 02.08.2018 14:21
31 de Emden Clouds 1 1006 94 10000 11 286 02.08.2018 14:21
32 ar Esquel Clear 15 1016 32 10000 14 229 02.08.2018 14:22
33 us Fairbanks Clouds -24 1028 76 10000 0 0 02.08.2018 14:23
34 de Flensburg Clouds 1 1001 81 10000 33 280 02.08.2018 14:21
35 de Frankfurt Clouds 2 1007 84 10000 22 280 02.08.2018 14:22
36 de Freiburg Snow 2 1010 91 32 5 251 02.08.2018 14:22
37 gb Glasgow Rain 3 1009 88 10000 6 160 02.08.2018 14:21
38 de Hamburg Clear -1 1004 93 10000 15 240 02.08.2018 14:21
39 no Hammerfest Clouds -7 1007 73 10000 6 60 02.08.2018 14:22
40 de Hannover Clear -1 1004 91 10000 13 240 02.08.2018 14:21
41 vn Hanoi Clear 12 1023 52 10000 6 335 02.08.2018 14:21
42 de Helgoland Clouds 5 1004 52 10000 37 307 02.08.2018 14:22
43 fi Helsinki Clouds -9 995 79 10000 15 30 02.08.2018 14:21
44 de Hiddensee Clouds 2 1001 58 10000 25 288 02.08.2018 14:21
45 sb Honiara Clouds 28 1010 77 10000 2 97 02.08.2018 14:22
46 us Honolulu Clouds 26 1017 73 10000 0 0 02.08.2018 14:22
47 at Innsbruck Snow 0 1009 98 1720 4 323 02.08.2018 14:23
48 tr Istanbul Clouds 14 1013 72 10000 26 230 02.08.2018 14:23
49 in Jagatsukh Clouds 7 1023 91 564 4 357 02.08.2018 14:22
50 id Jakarta Clouds 27 1009 80 10000 12 234 02.08.2018 14:22
51 ru Jakutsk Clouds -30 1004 68 10000 21 320 02.08.2018 14:22
52 af Kabul Clear 5 1021 24 10000 3 226 02.08.2018 14:21
53 eg Kairo Clouds 17 1020 63 10000 7 80 02.08.2018 14:22
54 za Kapstadt Clouds 16 1021 61 10000 5 0 02.08.2018 14:22
55 de Kassel Clouds -1 1007 100 10000 15 290 02.08.2018 14:21
56 ua Kiew Clear 2 1001 84 10000 6 240 02.08.2018 14:21
57 cd Kisangani Clouds 22 1009 98 10000 2 168 02.08.2018 14:23
58 de Köln Clouds 2 1007 85 10000 7 340 02.08.2018 14:21
59 bo La Paz Clouds 13 1033 62 10000 17 90 02.08.2018 14:22
60 es Las Palmas de Gran Canaria Clouds 19 1024 66 10000 28 20 02.08.2018 14:21
61 us Las Vegas Clouds 20 1020 24 10000 8 90 02.08.2018 14:21
62 cn Lhasa Clouds 3 1014 53 10000 6 185 02.08.2018 14:22
63 pt Lissabon Clouds 11 1023 74 10000 20 350 02.08.2018 14:22
64 gb London Clouds 1 1013 84 10000 2 266 02.08.2018 14:22
65 us Los Angeles Haze 19 1019 71 6437 9 260 02.08.2018 14:22
66 es Madrid Clouds 6 1005 57 10000 2 241 02.08.2018 14:23
67 de Magdeburg Clouds -1 1006 87 10000 2 225 02.08.2018 14:22
68 it Mailand Clear 4 1000 89 10000 4 0 02.08.2018 14:21
69 mv Male Clouds 28 1011 83 10000 0 0 02.08.2018 14:23
70 br Manaus Clouds 27 1007 74 10000 11 30 02.08.2018 14:21
71 gb Manchester Rain 2 1011 79 10000 6 170 02.08.2018 14:21
72 ph Manila Clouds 24 1010 76 10000 3 0 02.08.2018 14:21
73 ma Marrakesch Clouds 12 1021 87 8000 9 90 02.08.2018 14:23
74 mx Mexiko Stadt Clear 22 1022 20 10000 5 330 02.08.2018 14:21
75 us Miami Clouds 26 1018 56 10000 16 340 02.08.2018 14:23
76 uy Montevideo Clouds 22 1016 64 10000 24 120 02.08.2018 14:22
77 ca Montreal Mist 5 993 94 4828 9 180 02.08.2018 14:22
78 ru Moskau Clouds 0 997 89 10000 17 209 02.08.2018 14:22
79 in Mumbai Haze 24 1009 88 2500 0 0 02.08.2018 14:22
80 de München Snow 1 1007 91 10000 2 235 02.08.2018 14:21
81 jp Nagasaki Clouds 8 1018 87 10000 11 140 02.08.2018 14:21
82 in Nagpur Haze 20 1015 64 3000 7 10 02.08.2018 14:21
83 ke Nairobi Clouds 16 1021 94 10000 7 340 02.08.2018 14:22
84 bs Nassau Clouds 26 1018 53 10000 19 360 02.08.2018 14:22
85 us New York Clouds 13 1003 63 10000 6 162 02.08.2018 14:22
86 fr Nizza Clouds 9 996 69 10000 19 330 02.08.2018 14:22
87 us Nome Clear -23 1031 77 10000 0 0 02.08.2018 14:23
88 de Nürnberg Snow 1 1007 89 10000 15 270 02.08.2018 14:21
89 gl Nuuk Snow -3 1000 73 1551 18 230 02.08.2018 14:22
90 de Oberstdorf Snow -1 1006 97 97 2 173 02.08.2018 14:21
91 no Oslo Clouds -6 974 39 10000 5 35 02.08.2018 14:23
92 it Palermo Clouds 15 999 68 10000 21 183 02.08.2018 14:22
93 es Palma de Mallorca Clouds 8 1010 89 10000 8 62 02.08.2018 14:22
94 fr Paris Clouds 4 1014 84 10000 3 270 02.08.2018 14:22
95 cn Peking Clear -1 1022 27 10000 14 311 02.08.2018 14:23
96 au Perth Clear 15 1018 63 10000 32 110 02.08.2018 14:21
97 pg Port Moresby Clouds 26 1009 94 10000 6 0 02.08.2018 14:21
98 bo Potisi Clouds 11 1010 59 10000 15 48 02.08.2018 14:22
99 is Reykjavik Clouds 3 987 81 10000 28 220 02.08.2018 14:22
100 sa Riad Clouds 17 1017 25 10000 17 8 02.08.2018 14:21
101 br Rio de Janeiro Clouds 24 1015 80 10000 30 160 02.08.2018 14:22
102 it Rom Clear 11 998 82 10000 6 235 02.08.2018 14:23
103 fi Rovaniemi Clouds -6 1001 86 10000 22 30 02.08.2018 14:21
104 ec San Cristobal Clouds 23 1009 73 10000 28 160 02.08.2018 14:22
105 cl Santiago Clear 26 1014 31 10000 17 230 02.08.2018 14:23
106 do Santo Domingo Clouds 28 1014 77 10000 0 0 02.08.2018 14:21
107 kr Seoul Clear 2 1017 60 10000 7 270 02.08.2018 14:21
108 es Sevilla Clear 12 1020 53 10000 5 324 02.08.2018 14:22
109 cn Shanghai Clear 6 1017 58 10000 3 29 02.08.2018 14:21
110 bg Sofia Clouds 3 1007 75 10000 11 80 02.08.2018 14:21
111 se Stockholm Clouds -4 994 90 10000 13 340 02.08.2018 14:23
112 de Stuttgart Clouds 2 1007 89 10000 15 280 02.08.2018 14:22
113 ru Surgut Snow 0 987 100 5000 14 220 02.08.2018 14:23
114 fj Suva Clouds 27 1009 83 10000 17 110 02.08.2018 14:21
115 au Sydney Clear 21 1014 82 10000 6 20 02.08.2018 14:22
116 es Tarifa Clear 13 1021 59 10000 13 345 02.08.2018 14:21
117 jp Tokio Clouds 7 1015 66 10000 9 350 02.08.2018 14:22
118 de Torfhaus Clouds -6 1008 88 10000 6 256 02.08.2018 14:22
119 de Trier Clouds 1 1011 90 10000 5 287 02.08.2018 14:21
120 us Tucson Haze 27 1018 26 8047 5 67 02.08.2018 14:21
121 mn Ulaanbaatar Clear -20 1021 84 10000 7 0 02.08.2018 14:23
122 mn Uliastai Clear -14 1038 52 10000 11 74 02.08.2018 14:23
123 ar Ushuaia Clouds 11 1005 58 10000 28 230 02.08.2018 14:22
124 mx Veracruz Clouds 25 1019 78 10000 11 110 02.08.2018 14:21
125 bg Warna Clear 9 1008 76 10000 7 70 02.08.2018 14:21
126 nz Wellington Rain 19 1023 84 10000 26 10 02.08.2018 14:23
127 ru Werchojansk Clouds -41 1015 99 1811 3 236 02.08.2018 14:22
128 at Wien Clear 5 1002 77 10000 11 21 02.08.2018 14:22